Year,Month,Day,Hour,Minute,Value (Times are PST for temperature in C)
2010,06,12,00,00,10.90
2010,06,12,00,01,10.90
2010,06,12,00,02,10.90
2010,06,12,00,03,10.90
2010,06,12,00,04,10.90
2010,06,12,00,05,10.90
2010,06,12,00,06,10.80
2010,06,12,00,07,10.80
2010,06,12,00,08,10.80
2010,06,12,00,09,10.80
2010,06,12,00,10,10.80
2010,06,12,00,11,10.80
2010,06,12,00,12,10.80
2010,06,12,00,13,10.80
2010,06,12,00,14,10.80
2010,06,12,00,15,10.80
2010,06,12,00,16,10.80
2010,06,12,00,17,10.80
2010,06,12,00,18,10.80
2010,06,12,00,19,10.80
2010,06,12,00,20,10.70
2010,06,12,00,21,10.70
2010,06,12,00,22,10.70
2010,06,12,00,23,10.70
2010,06,12,00,24,10.70
2010,06,12,00,25,10.70
2010,06,12,00,26,10.70
2010,06,12,00,27,10.70
2010,06,12,00,28,10.70
2010,06,12,00,29,10.70
2010,06,12,00,30,10.70
2010,06,12,00,31,10.70
2010,06,12,00,32,10.70
2010,06,12,00,33,10.70
2010,06,12,00,34,10.60
2010,06,12,00,35,10.60
2010,06,12,00,36,10.60
2010,06,12,00,37,10.60
2010,06,12,00,38,10.60
2010,06,12,00,39,10.60
2010,06,12,00,40,10.60
2010,06,12,00,41,10.60
2010,06,12,00,42,10.60
2010,06,12,00,43,10.60
2010,06,12,00,44,10.60
2010,06,12,00,45,10.60
2010,06,12,00,46,10.60
2010,06,12,00,47,10.60
2010,06,12,00,48,10.50
2010,06,12,00,49,10.50
2010,06,12,00,50,10.50
2010,06,12,00,51,10.50
2010,06,12,00,52,10.50
2010,06,12,00,53,10.40
2010,06,12,00,54,10.40
2010,06,12,00,55,10.40
2010,06,12,00,56,10.40
2010,06,12,00,57,10.40
2010,06,12,00,58,10.40
2010,06,12,00,59,10.30
2010,06,12,01,00,10.30
2010,06,12,01,01,10.30
2010,06,12,01,02,10.30
2010,06,12,01,03,10.30
2010,06,12,01,04,10.30
2010,06,12,01,05,10.30
2010,06,12,01,06,10.30
2010,06,12,01,07,10.30
2010,06,12,01,08,10.20
2010,06,12,01,09,10.20
2010,06,12,01,10,10.20
2010,06,12,01,11,10.20
2010,06,12,01,12,10.20
2010,06,12,01,13,10.20
2010,06,12,01,14,10.20
2010,06,12,01,15,10.20
2010,06,12,01,16,10.20
2010,06,12,01,17,10.20
2010,06,12,01,18,10.20
2010,06,12,01,19,10.10
2010,06,12,01,20,10.10
2010,06,12,01,21,10.10
2010,06,12,01,22,10.10
2010,06,12,01,23,10.10
2010,06,12,01,24,10.10
2010,06,12,01,25,10.10
2010,06,12,01,26,10.10
2010,06,12,01,27,10.10
2010,06,12,01,28,10.10
2010,06,12,01,29,10.10
2010,06,12,01,30,10.10
2010,06,12,01,31,10.10
2010,06,12,01,32,10.10
2010,06,12,01,33,10.10
2010,06,12,01,34,10.00
2010,06,12,01,35,10.00
2010,06,12,01,36,10.00
2010,06,12,01,37,10.00
2010,06,12,01,38,9.90
2010,06,12,01,39,9.90
2010,06,12,01,40,9.90
2010,06,12,01,41,9.90
2010,06,12,01,42,9.90
2010,06,12,01,43,9.90
2010,06,12,01,44,9.90
2010,06,12,01,45,9.90
2010,06,12,01,46,9.90
2010,06,12,01,47,9.80
2010,06,12,01,48,9.80
2010,06,12,01,49,9.80
2010,06,12,01,50,9.80
2010,06,12,01,51,9.80
2010,06,12,01,52,9.80
2010,06,12,01,53,9.80
2010,06,12,01,54,9.80
2010,06,12,01,55,9.80
2010,06,12,01,56,9.80
2010,06,12,01,57,9.80
2010,06,12,01,58,9.80
2010,06,12,01,59,9.80
2010,06,12,02,00,9.80
2010,06,12,02,01,9.70
2010,06,12,02,02,9.70
2010,06,12,02,03,9.70
2010,06,12,02,04,9.70
2010,06,12,02,05,9.70
2010,06,12,02,06,9.70
2010,06,12,02,07,9.70
2010,06,12,02,08,9.70
2010,06,12,02,09,9.60
2010,06,12,02,10,9.60
2010,06,12,02,11,9.60
2010,06,12,02,12,9.60
2010,06,12,02,13,9.60
2010,06,12,02,14,9.60
2010,06,12,02,15,9.60
2010,06,12,02,16,9.60
2010,06,12,02,17,9.60
2010,06,12,02,18,9.50
2010,06,12,02,19,9.50
2010,06,12,02,20,9.50
2010,06,12,02,21,9.50
2010,06,12,02,22,9.40
2010,06,12,02,23,9.40
2010,06,12,02,24,9.40
2010,06,12,02,25,9.40
2010,06,12,02,26,9.40
2010,06,12,02,27,9.40
2010,06,12,02,28,9.40
2010,06,12,02,29,9.40
2010,06,12,02,30,9.40
2010,06,12,02,31,9.40
2010,06,12,02,32,9.40
2010,06,12,02,33,9.40
2010,06,12,02,34,9.40
2010,06,12,02,35,9.40
2010,06,12,02,36,9.40
2010,06,12,02,37,9.30
2010,06,12,02,38,9.30
2010,06,12,02,39,9.30
2010,06,12,02,40,9.30
2010,06,12,02,41,9.30
2010,06,12,02,42,9.30
2010,06,12,02,43,9.30
2010,06,12,02,44,9.30
2010,06,12,02,45,9.20
2010,06,12,02,46,9.20
2010,06,12,02,47,9.20
2010,06,12,02,48,9.20
2010,06,12,02,49,9.20
2010,06,12,02,50,9.20
2010,06,12,02,51,9.10
2010,06,12,02,52,9.10
2010,06,12,02,53,9.10
2010,06,12,02,54,9.10
2010,06,12,02,55,9.10
2010,06,12,02,56,9.10
2010,06,12,02,57,9.10
2010,06,12,02,58,9.10
2010,06,12,02,59,9.00
2010,06,12,03,00,9.00
2010,06,12,03,01,9.00
2010,06,12,03,02,9.00
2010,06,12,03,03,9.00
2010,06,12,03,04,9.00
2010,06,12,03,05,9.00
2010,06,12,03,06,8.90
2010,06,12,03,07,8.90
2010,06,12,03,08,8.90
2010,06,12,03,09,8.90
2010,06,12,03,10,8.90
2010,06,12,03,11,8.90
2010,06,12,03,12,8.90
2010,06,12,03,13,8.80
2010,06,12,03,14,8.80
2010,06,12,03,15,8.80
2010,06,12,03,16,8.80
2010,06,12,03,17,8.80
2010,06,12,03,18,8.80
2010,06,12,03,19,8.80
2010,06,12,03,20,8.80
2010,06,12,03,21,8.80
2010,06,12,03,22,8.80
2010,06,12,03,23,8.80
2010,06,12,03,24,8.80
2010,06,12,03,25,8.70
2010,06,12,03,26,8.70
2010,06,12,03,27,8.70
2010,06,12,03,28,8.70
2010,06,12,03,29,8.70
2010,06,12,03,30,8.70
2010,06,12,03,31,8.70
2010,06,12,03,32,8.60
2010,06,12,03,33,8.60
2010,06,12,03,34,8.60
2010,06,12,03,35,8.60
2010,06,12,03,36,8.60
2010,06,12,03,37,8.60
2010,06,12,03,38,8.60
2010,06,12,03,39,8.60
2010,06,12,03,40,8.50
2010,06,12,03,41,8.50
2010,06,12,03,42,8.50
2010,06,12,03,43,8.50
2010,06,12,03,44,8.50
2010,06,12,03,45,8.50
2010,06,12,03,46,8.50
2010,06,12,03,47,8.50
2010,06,12,03,48,8.50
2010,06,12,03,49,8.40
2010,06,12,03,50,8.40
2010,06,12,03,51,8.40
2010,06,12,03,52,8.40
2010,06,12,03,53,8.40
2010,06,12,03,54,8.50
2010,06,12,03,55,8.50
2010,06,12,03,56,8.50
2010,06,12,03,57,8.40
2010,06,12,03,58,8.50
2010,06,12,03,59,8.50
2010,06,12,04,00,8.50
2010,06,12,04,01,8.50
2010,06,12,04,02,8.50
2010,06,12,04,03,8.40
2010,06,12,04,04,8.50
2010,06,12,04,05,8.50
2010,06,12,04,06,8.50
2010,06,12,04,07,8.40
2010,06,12,04,08,8.40
2010,06,12,04,09,8.40
2010,06,12,04,10,8.40
2010,06,12,04,11,8.40
2010,06,12,04,12,8.40
2010,06,12,04,13,8.40
2010,06,12,04,14,8.40
2010,06,12,04,15,8.40
2010,06,12,04,16,8.40
2010,06,12,04,17,8.40
2010,06,12,04,18,8.40
2010,06,12,04,19,8.30
2010,06,12,04,20,8.30
2010,06,12,04,21,8.30
2010,06,12,04,22,8.30
2010,06,12,04,23,8.30
2010,06,12,04,24,8.30
2010,06,12,04,25,8.30
2010,06,12,04,26,8.30
2010,06,12,04,27,8.30
2010,06,12,04,28,8.30
2010,06,12,04,29,8.30
2010,06,12,04,30,8.30
2010,06,12,04,31,8.30
2010,06,12,04,32,8.30
2010,06,12,04,33,8.30
2010,06,12,04,34,8.30
2010,06,12,04,35,8.30
2010,06,12,04,36,8.30
2010,06,12,04,37,8.30
2010,06,12,04,38,8.30
2010,06,12,04,39,8.30
2010,06,12,04,40,8.30
2010,06,12,04,41,8.30
2010,06,12,04,42,8.30
2010,06,12,04,43,8.20
2010,06,12,04,44,8.20
2010,06,12,04,45,8.20
2010,06,12,04,46,8.20
2010,06,12,04,47,8.20
2010,06,12,04,48,8.20
2010,06,12,04,49,8.20
2010,06,12,04,50,8.20
2010,06,12,04,51,8.20
2010,06,12,04,52,8.20
2010,06,12,04,53,8.20
2010,06,12,04,54,8.20
2010,06,12,04,55,8.20
2010,06,12,04,56,8.20
2010,06,12,04,57,8.10
2010,06,12,04,58,8.10
2010,06,12,04,59,8.10
2010,06,12,05,00,8.10
2010,06,12,05,01,8.10
2010,06,12,05,02,8.10
2010,06,12,05,03,8.10
2010,06,12,05,04,8.10
2010,06,12,05,05,8.10
2010,06,12,05,06,8.10
2010,06,12,05,07,8.10
2010,06,12,05,08,8.10
2010,06,12,05,09,8.10
2010,06,12,05,10,8.10
2010,06,12,05,11,8.10
2010,06,12,05,12,8.10
2010,06,12,05,13,8.10
2010,06,12,05,14,8.10
2010,06,12,05,15,8.10
2010,06,12,05,16,8.10
2010,06,12,05,17,8.10
2010,06,12,05,18,8.10
2010,06,12,05,19,8.10
2010,06,12,05,20,8.10
2010,06,12,05,21,8.10
2010,06,12,05,22,8.10
2010,06,12,05,23,8.10
2010,06,12,05,24,8.10
2010,06,12,05,25,8.10
2010,06,12,05,26,8.10
2010,06,12,05,27,8.10
2010,06,12,05,28,8.00
2010,06,12,05,29,8.00
2010,06,12,05,30,8.00
2010,06,12,05,31,8.00
2010,06,12,05,32,8.00
2010,06,12,05,33,8.00
2010,06,12,05,34,8.00
2010,06,12,05,35,8.00
2010,06,12,05,36,8.00
2010,06,12,05,37,7.90
2010,06,12,05,38,7.90
2010,06,12,05,39,7.90
2010,06,12,05,40,7.90
2010,06,12,05,41,7.90
2010,06,12,05,42,7.90
2010,06,12,05,43,7.90
2010,06,12,05,44,7.90
2010,06,12,05,45,7.90
2010,06,12,05,46,7.90
2010,06,12,05,47,7.90
2010,06,12,05,48,7.90
2010,06,12,05,49,7.90
2010,06,12,05,50,7.90
2010,06,12,05,51,7.90
2010,06,12,05,52,7.90
2010,06,12,05,53,7.90
2010,06,12,05,54,7.90
2010,06,12,05,55,7.80
2010,06,12,05,56,7.80
2010,06,12,05,57,7.80
2010,06,12,05,58,7.80
2010,06,12,05,59,7.80
2010,06,12,06,00,7.80
2010,06,12,06,01,7.80
2010,06,12,06,02,7.80
2010,06,12,06,03,7.80
2010,06,12,06,04,7.80
2010,06,12,06,05,7.80
2010,06,12,06,06,7.80
2010,06,12,06,07,7.80
2010,06,12,06,08,7.80
2010,06,12,06,09,7.80
2010,06,12,06,10,7.80
2010,06,12,06,11,7.80
2010,06,12,06,12,7.80
2010,06,12,06,13,7.90
2010,06,12,06,14,7.90
2010,06,12,06,15,7.90
2010,06,12,06,16,8.00
2010,06,12,06,17,8.00
2010,06,12,06,18,8.10
2010,06,12,06,19,8.10
2010,06,12,06,20,8.20
2010,06,12,06,21,8.20
2010,06,12,06,22,8.30
2010,06,12,06,23,8.30
2010,06,12,06,24,8.30
2010,06,12,06,25,8.40
2010,06,12,06,26,8.40
2010,06,12,06,27,8.40
2010,06,12,06,28,8.50
2010,06,12,06,29,8.50
2010,06,12,06,30,8.60
2010,06,12,06,31,8.60
2010,06,12,06,32,8.60
2010,06,12,06,33,8.70
2010,06,12,06,34,8.70
2010,06,12,06,35,8.70
2010,06,12,06,36,8.80
2010,06,12,06,37,8.90
2010,06,12,06,38,8.90
2010,06,12,06,39,8.90
2010,06,12,06,40,9.00
2010,06,12,06,41,9.10
2010,06,12,06,42,9.20
2010,06,12,06,43,9.20
2010,06,12,06,44,9.20
2010,06,12,06,45,9.30
2010,06,12,06,46,9.30
2010,06,12,06,47,9.30
2010,06,12,06,48,9.30
2010,06,12,06,49,9.30
2010,06,12,06,50,9.30
2010,06,12,06,51,9.30
2010,06,12,06,52,9.30
2010,06,12,06,53,9.30
2010,06,12,06,54,9.30
2010,06,12,06,55,9.30
2010,06,12,06,56,9.30
2010,06,12,06,57,9.30
2010,06,12,06,58,9.30
2010,06,12,06,59,9.30
2010,06,12,07,00,9.40
2010,06,12,07,01,9.40
2010,06,12,07,02,9.40
2010,06,12,07,03,9.30
2010,06,12,07,04,9.30
2010,06,12,07,05,9.30
2010,06,12,07,06,9.40
2010,06,12,07,07,9.40
2010,06,12,07,08,9.40
2010,06,12,07,09,9.40
2010,06,12,07,10,9.40
2010,06,12,07,11,9.40
2010,06,12,07,12,9.50
2010,06,12,07,13,9.60
2010,06,12,07,14,9.60
2010,06,12,07,15,9.50
2010,06,12,07,16,9.50
2010,06,12,07,17,9.50
2010,06,12,07,18,9.40
2010,06,12,07,19,9.40
2010,06,12,07,20,9.40
2010,06,12,07,21,9.40
2010,06,12,07,22,9.40
2010,06,12,07,23,9.30
2010,06,12,07,24,9.30
2010,06,12,07,25,9.30
2010,06,12,07,26,9.30
2010,06,12,07,27,9.30
2010,06,12,07,28,9.30
2010,06,12,07,29,9.30
2010,06,12,07,30,9.30
2010,06,12,07,31,9.30
2010,06,12,07,32,9.30
2010,06,12,07,33,9.30
2010,06,12,07,34,9.40
2010,06,12,07,35,9.40
2010,06,12,07,36,9.40
2010,06,12,07,37,9.50
2010,06,12,07,38,9.60
2010,06,12,07,39,9.60
2010,06,12,07,40,9.60
2010,06,12,07,41,9.60
2010,06,12,07,42,9.70
2010,06,12,07,43,9.70
2010,06,12,07,44,9.80
2010,06,12,07,45,9.90
2010,06,12,07,46,10.00
2010,06,12,07,47,10.10
2010,06,12,07,48,10.20
2010,06,12,07,49,10.20
2010,06,12,07,50,10.30
2010,06,12,07,51,10.40
2010,06,12,07,52,10.50
2010,06,12,07,53,10.60
2010,06,12,07,54,10.60
2010,06,12,07,55,10.60
2010,06,12,07,56,10.70
2010,06,12,07,57,10.70
2010,06,12,07,58,10.80
2010,06,12,07,59,10.80
2010,06,12,08,00,10.70
2010,06,12,08,01,10.70
2010,06,12,08,02,10.70
2010,06,12,08,03,10.70
2010,06,12,08,04,10.70
2010,06,12,08,05,10.70
2010,06,12,08,06,10.70
2010,06,12,08,07,10.60
2010,06,12,08,08,10.60
2010,06,12,08,09,10.60
2010,06,12,08,10,10.60
2010,06,12,08,11,10.60
2010,06,12,08,12,10.70
2010,06,12,08,13,10.70
2010,06,12,08,14,10.70
2010,06,12,08,15,10.70
2010,06,12,08,16,10.80
2010,06,12,08,17,10.80
2010,06,12,08,18,10.80
2010,06,12,08,19,10.90
2010,06,12,08,20,10.90
2010,06,12,08,21,11.00
2010,06,12,08,22,11.10
2010,06,12,08,23,11.10
2010,06,12,08,24,11.10
2010,06,12,08,25,11.10
2010,06,12,08,26,11.10
2010,06,12,08,27,11.10
2010,06,12,08,28,11.10
2010,06,12,08,29,11.10
2010,06,12,08,30,11.10
2010,06,12,08,31,11.10
2010,06,12,08,32,11.10
2010,06,12,08,33,11.10
2010,06,12,08,34,11.10
2010,06,12,08,35,11.20
2010,06,12,08,36,11.20
2010,06,12,08,37,11.20
2010,06,12,08,38,11.20
2010,06,12,08,39,11.20
2010,06,12,08,40,11.30
2010,06,12,08,41,11.30
2010,06,12,08,42,11.30
2010,06,12,08,43,11.40
2010,06,12,08,44,11.40
2010,06,12,08,45,11.40
2010,06,12,08,46,11.50
2010,06,12,08,47,11.50
2010,06,12,08,48,11.60
2010,06,12,08,49,11.60
2010,06,12,08,50,11.60
2010,06,12,08,51,11.60
2010,06,12,08,52,11.60
2010,06,12,08,53,11.70
2010,06,12,08,54,11.70
2010,06,12,08,55,11.80
2010,06,12,08,56,11.80
2010,06,12,08,57,11.80
2010,06,12,08,58,11.80
2010,06,12,08,59,11.80
2010,06,12,09,00,11.90
2010,06,12,09,01,11.90
2010,06,12,09,02,11.90
2010,06,12,09,03,11.90
2010,06,12,09,04,12.00
2010,06,12,09,05,12.00
2010,06,12,09,06,12.10
2010,06,12,09,07,12.10
2010,06,12,09,08,12.20
2010,06,12,09,09,12.20
2010,06,12,09,10,12.20
2010,06,12,09,11,12.30
2010,06,12,09,12,12.30
2010,06,12,09,13,12.30
2010,06,12,09,14,12.40
2010,06,12,09,15,12.40
2010,06,12,09,16,12.60
2010,06,12,09,17,12.60
2010,06,12,09,18,12.70
2010,06,12,09,19,12.70
2010,06,12,09,20,12.80
2010,06,12,09,21,12.80
2010,06,12,09,22,12.80
2010,06,12,09,23,12.80
2010,06,12,09,24,12.80
2010,06,12,09,25,12.90
2010,06,12,09,26,12.90
2010,06,12,09,27,12.90
2010,06,12,09,28,13.00
2010,06,12,09,29,13.10
2010,06,12,09,30,13.10
2010,06,12,09,31,13.20
2010,06,12,09,32,13.20
2010,06,12,09,33,13.30
2010,06,12,09,34,13.30
2010,06,12,09,35,13.40
2010,06,12,09,36,13.50
2010,06,12,09,37,13.60
2010,06,12,09,38,13.70
2010,06,12,09,39,13.70
2010,06,12,09,40,13.80
2010,06,12,09,41,13.80
2010,06,12,09,42,13.80
2010,06,12,09,43,13.80
2010,06,12,09,44,13.90
2010,06,12,09,45,14.00
2010,06,12,09,46,14.10
2010,06,12,09,47,14.20
2010,06,12,09,48,14.30
2010,06,12,09,49,14.30
2010,06,12,09,50,14.40
2010,06,12,09,51,14.40
2010,06,12,09,52,14.60
2010,06,12,09,53,14.60
2010,06,12,09,54,14.70
2010,06,12,09,55,14.70
2010,06,12,09,56,14.70
2010,06,12,09,57,14.70
2010,06,12,09,58,14.70
2010,06,12,09,59,14.70
2010,06,12,10,00,14.70
2010,06,12,10,01,14.70
2010,06,12,10,02,14.70
2010,06,12,10,03,14.60
2010,06,12,10,04,14.60
2010,06,12,10,05,14.70
2010,06,12,10,06,14.70
2010,06,12,10,07,14.80
2010,06,12,10,08,14.80
2010,06,12,10,09,15.00
2010,06,12,10,10,15.00
2010,06,12,10,11,15.00
2010,06,12,10,12,15.00
2010,06,12,10,13,15.10
2010,06,12,10,14,15.20
2010,06,12,10,15,15.30
2010,06,12,10,16,15.40
2010,06,12,10,17,15.50
2010,06,12,10,18,15.60
2010,06,12,10,19,15.60
2010,06,12,10,20,15.60
2010,06,12,10,21,15.60
2010,06,12,10,22,15.70
2010,06,12,10,23,15.70
2010,06,12,10,24,15.70
2010,06,12,10,25,15.80
2010,06,12,10,26,15.80
2010,06,12,10,27,15.90
2010,06,12,10,28,15.90
2010,06,12,10,29,15.90
2010,06,12,10,30,15.90
2010,06,12,10,31,15.90
2010,06,12,10,32,16.00
2010,06,12,10,33,16.10
2010,06,12,10,34,16.10
2010,06,12,10,35,16.10
2010,06,12,10,36,16.10
2010,06,12,10,37,16.10
2010,06,12,10,38,16.10
2010,06,12,10,39,16.10
2010,06,12,10,40,16.10
2010,06,12,10,41,16.10
2010,06,12,10,42,16.20
2010,06,12,10,43,16.20
2010,06,12,10,44,16.30
2010,06,12,10,45,16.30
2010,06,12,10,46,16.50
2010,06,12,10,47,16.70
2010,06,12,10,48,16.80
2010,06,12,10,49,16.90
2010,06,12,10,50,17.00
2010,06,12,10,51,17.10
2010,06,12,10,52,17.20
2010,06,12,10,53,17.20
2010,06,12,10,54,17.20
2010,06,12,10,55,17.30
2010,06,12,10,56,17.30
2010,06,12,10,57,17.30
2010,06,12,10,58,17.30
2010,06,12,10,59,17.30
2010,06,12,11,00,17.40
2010,06,12,11,01,17.40
2010,06,12,11,02,17.60
2010,06,12,11,03,17.70
2010,06,12,11,04,17.70
2010,06,12,11,05,17.70
2010,06,12,11,06,17.70
2010,06,12,11,07,17.70
2010,06,12,11,08,17.70
2010,06,12,11,09,17.70
2010,06,12,11,10,17.80
2010,06,12,11,11,17.80
2010,06,12,11,12,17.90
2010,06,12,11,13,18.00
2010,06,12,11,14,18.10
2010,06,12,11,15,18.10
2010,06,12,11,16,18.20
2010,06,12,11,17,18.20
2010,06,12,11,18,18.20
2010,06,12,11,19,18.20
2010,06,12,11,20,18.20
2010,06,12,11,21,18.20
2010,06,12,11,22,18.30
2010,06,12,11,23,18.40
2010,06,12,11,24,18.50
2010,06,12,11,25,18.60
2010,06,12,11,26,18.70
2010,06,12,11,27,18.80
2010,06,12,11,28,18.80
2010,06,12,11,29,18.80
2010,06,12,11,30,18.80
2010,06,12,11,31,18.90
2010,06,12,11,32,18.90
2010,06,12,11,33,18.80
2010,06,12,11,34,18.90
2010,06,12,11,35,18.90
2010,06,12,11,36,19.00
2010,06,12,11,37,19.10
2010,06,12,11,38,19.10
2010,06,12,11,39,19.10
2010,06,12,11,40,19.10
2010,06,12,11,41,19.00
2010,06,12,11,42,19.00
2010,06,12,11,43,18.90
2010,06,12,11,44,18.90
2010,06,12,11,45,18.90
2010,06,12,11,46,18.90
2010,06,12,11,47,18.90
2010,06,12,11,48,18.90
2010,06,12,11,49,18.90
2010,06,12,11,50,18.90
2010,06,12,11,51,19.00
2010,06,12,11,52,19.00
2010,06,12,11,53,19.10
2010,06,12,11,54,19.10
2010,06,12,11,55,19.10
2010,06,12,11,56,19.10
2010,06,12,11,57,19.20
2010,06,12,11,58,19.20
2010,06,12,11,59,19.30
2010,06,12,12,00,19.20
2010,06,12,12,01,19.30
2010,06,12,12,02,19.30
2010,06,12,12,03,19.40
2010,06,12,12,04,19.40
2010,06,12,12,05,19.40
2010,06,12,12,06,19.40
2010,06,12,12,07,19.40
2010,06,12,12,08,19.40
2010,06,12,12,09,19.40
2010,06,12,12,10,19.50
2010,06,12,12,11,19.50
2010,06,12,12,12,19.50
2010,06,12,12,13,19.40
2010,06,12,12,14,19.40
2010,06,12,12,15,19.50
2010,06,12,12,16,19.50
2010,06,12,12,17,19.50
2010,06,12,12,18,19.60
2010,06,12,12,19,19.60
2010,06,12,12,20,19.70
2010,06,12,12,21,19.70
2010,06,12,12,22,19.80
2010,06,12,12,23,19.80
2010,06,12,12,24,19.90
2010,06,12,12,25,20.00
2010,06,12,12,26,20.10
2010,06,12,12,27,20.10
2010,06,12,12,28,20.10
2010,06,12,12,29,20.20
2010,06,12,12,30,20.20
2010,06,12,12,31,20.30
2010,06,12,12,32,20.40
2010,06,12,12,33,20.50
2010,06,12,12,34,20.60
2010,06,12,12,35,20.60
2010,06,12,12,36,20.60
2010,06,12,12,37,20.70
2010,06,12,12,38,20.70
2010,06,12,12,39,20.70
2010,06,12,12,40,20.70
2010,06,12,12,41,20.70
2010,06,12,12,42,20.70
2010,06,12,12,43,20.70
2010,06,12,12,44,20.80
2010,06,12,12,45,20.80
2010,06,12,12,46,20.80
2010,06,12,12,47,20.90
2010,06,12,12,48,21.00
2010,06,12,12,49,21.10
2010,06,12,12,50,21.10
2010,06,12,12,51,21.10
2010,06,12,12,52,21.10
2010,06,12,12,53,21.20
2010,06,12,12,54,21.20
2010,06,12,12,55,21.30
2010,06,12,12,56,21.30
2010,06,12,12,57,21.30
2010,06,12,12,58,21.40
2010,06,12,12,59,21.40
2010,06,12,13,00,21.60
2010,06,12,13,01,21.70
2010,06,12,13,02,21.80
2010,06,12,13,03,21.80
2010,06,12,13,04,21.80
2010,06,12,13,05,21.90
2010,06,12,13,06,21.90
2010,06,12,13,07,21.90
2010,06,12,13,08,21.90
2010,06,12,13,09,21.90
2010,06,12,13,10,21.80
2010,06,12,13,11,21.80
2010,06,12,13,12,21.80
2010,06,12,13,13,21.80
2010,06,12,13,14,21.80
2010,06,12,13,15,21.80
2010,06,12,13,16,21.80
2010,06,12,13,17,21.80
2010,06,12,13,18,21.80
2010,06,12,13,19,21.80
2010,06,12,13,20,21.90
2010,06,12,13,21,21.90
2010,06,12,13,22,21.90
2010,06,12,13,23,21.80
2010,06,12,13,24,21.80
2010,06,12,13,25,21.80
2010,06,12,13,26,21.80
2010,06,12,13,27,21.80
2010,06,12,13,28,21.80
2010,06,12,13,29,21.80
2010,06,12,13,30,21.80
2010,06,12,13,31,21.80
2010,06,12,13,32,21.80
2010,06,12,13,33,21.80
2010,06,12,13,34,21.70
2010,06,12,13,35,21.70
2010,06,12,13,36,21.70
2010,06,12,13,37,21.70
2010,06,12,13,38,21.70
2010,06,12,13,39,21.70
2010,06,12,13,40,21.80
2010,06,12,13,41,21.90
2010,06,12,13,42,21.90
2010,06,12,13,43,22.00
2010,06,12,13,44,22.10
2010,06,12,13,45,22.10
2010,06,12,13,46,22.10
2010,06,12,13,47,22.10
2010,06,12,13,48,22.20
2010,06,12,13,49,22.20
2010,06,12,13,50,22.20
2010,06,12,13,51,22.20
2010,06,12,13,52,22.20
2010,06,12,13,53,22.20
2010,06,12,13,54,22.30
2010,06,12,13,55,22.30
2010,06,12,13,56,22.30
2010,06,12,13,57,22.40
2010,06,12,13,58,22.50
2010,06,12,13,59,22.60
2010,06,12,14,00,22.70
2010,06,12,14,01,22.70
2010,06,12,14,02,22.80
2010,06,12,14,03,22.80
2010,06,12,14,04,22.90
2010,06,12,14,05,22.90
2010,06,12,14,06,23.00
2010,06,12,14,07,23.00
2010,06,12,14,08,23.00
2010,06,12,14,09,23.10
2010,06,12,14,10,23.10
2010,06,12,14,11,23.10
2010,06,12,14,12,23.10
2010,06,12,14,13,23.10
2010,06,12,14,14,23.10
2010,06,12,14,15,23.10
2010,06,12,14,16,23.10
2010,06,12,14,17,23.00
2010,06,12,14,18,22.90
2010,06,12,14,19,22.90
2010,06,12,14,20,22.90
2010,06,12,14,21,22.80
2010,06,12,14,22,22.80
2010,06,12,14,23,22.80
2010,06,12,14,24,22.80
2010,06,12,14,25,22.90
2010,06,12,14,26,22.90
2010,06,12,14,27,22.90
2010,06,12,14,28,23.00
2010,06,12,14,29,23.10
2010,06,12,14,30,23.10
2010,06,12,14,31,23.20
2010,06,12,14,32,23.20
2010,06,12,14,33,23.20
2010,06,12,14,34,23.20
2010,06,12,14,35,23.10
2010,06,12,14,36,23.10
2010,06,12,14,37,23.10
2010,06,12,14,38,23.10
2010,06,12,14,39,23.10
2010,06,12,14,40,23.20
2010,06,12,14,41,23.30
2010,06,12,14,42,23.30
2010,06,12,14,43,23.40
2010,06,12,14,44,23.40
2010,06,12,14,45,23.40
2010,06,12,14,46,23.50
2010,06,12,14,47,23.60
2010,06,12,14,48,23.60
2010,06,12,14,49,23.60
2010,06,12,14,50,23.60
2010,06,12,14,51,23.70
2010,06,12,14,52,23.70
2010,06,12,14,53,23.80
2010,06,12,14,54,23.90
2010,06,12,14,55,23.80
2010,06,12,14,56,23.80
2010,06,12,14,57,23.70
2010,06,12,14,58,23.70
2010,06,12,14,59,23.80
2010,06,12,15,00,23.80
2010,06,12,15,01,23.80
2010,06,12,15,02,23.80
2010,06,12,15,03,23.80
2010,06,12,15,04,23.90
2010,06,12,15,05,23.90
2010,06,12,15,06,23.90
2010,06,12,15,07,23.90
2010,06,12,15,08,23.90
2010,06,12,15,09,23.90
2010,06,12,15,10,24.00
2010,06,12,15,11,24.00
2010,06,12,15,12,24.10
2010,06,12,15,13,24.20
2010,06,12,15,14,24.20
2010,06,12,15,15,24.20
2010,06,12,15,16,24.20
2010,06,12,15,17,24.20
2010,06,12,15,18,24.20
2010,06,12,15,19,24.20
2010,06,12,15,20,24.20
2010,06,12,15,21,24.10
2010,06,12,15,22,24.10
2010,06,12,15,23,24.10
2010,06,12,15,24,24.10
2010,06,12,15,25,24.20
2010,06,12,15,26,24.20
2010,06,12,15,27,24.30
2010,06,12,15,28,24.30
2010,06,12,15,29,24.30
2010,06,12,15,30,24.20
2010,06,12,15,31,24.20
2010,06,12,15,32,24.20
2010,06,12,15,33,24.20
2010,06,12,15,34,24.20
2010,06,12,15,35,24.20
2010,06,12,15,36,24.20
2010,06,12,15,37,24.20
2010,06,12,15,38,24.30
2010,06,12,15,39,24.30
2010,06,12,15,40,24.40
2010,06,12,15,41,24.40
2010,06,12,15,42,24.50
2010,06,12,15,43,24.60
2010,06,12,15,44,24.60
2010,06,12,15,45,24.70
2010,06,12,15,46,24.60
2010,06,12,15,47,24.60
2010,06,12,15,48,24.50
2010,06,12,15,49,24.60
2010,06,12,15,50,24.60
2010,06,12,15,51,24.60
2010,06,12,15,52,24.60
2010,06,12,15,53,24.50
2010,06,12,15,54,24.40
2010,06,12,15,55,24.20
2010,06,12,15,56,24.20
2010,06,12,15,57,24.20
2010,06,12,15,58,24.10
2010,06,12,15,59,24.10
2010,06,12,16,00,24.10
2010,06,12,16,01,24.10
2010,06,12,16,02,24.10
2010,06,12,16,03,24.10
2010,06,12,16,04,24.10
2010,06,12,16,05,24.10
2010,06,12,16,06,24.00
2010,06,12,16,07,24.00
2010,06,12,16,08,23.90
2010,06,12,16,09,23.90
2010,06,12,16,10,23.80
2010,06,12,16,11,23.80
2010,06,12,16,12,23.80
2010,06,12,16,13,23.80
2010,06,12,16,14,23.90
2010,06,12,16,15,24.00
2010,06,12,16,16,24.00
2010,06,12,16,17,23.90
2010,06,12,16,18,23.90
2010,06,12,16,19,23.90
2010,06,12,16,20,24.00
2010,06,12,16,21,24.10
2010,06,12,16,22,24.10
2010,06,12,16,23,24.20
2010,06,12,16,24,24.20
2010,06,12,16,25,24.20
2010,06,12,16,26,24.20
2010,06,12,16,27,24.20
2010,06,12,16,28,24.20
2010,06,12,16,29,24.20
2010,06,12,16,30,24.10
2010,06,12,16,31,24.10
2010,06,12,16,32,24.10
2010,06,12,16,33,24.10
2010,06,12,16,34,24.20
2010,06,12,16,35,24.20
2010,06,12,16,36,24.20
2010,06,12,16,37,24.20
2010,06,12,16,38,24.20
2010,06,12,16,39,24.20
2010,06,12,16,40,24.20
2010,06,12,16,41,24.10
2010,06,12,16,42,24.10
2010,06,12,16,43,24.10
2010,06,12,16,44,24.10
2010,06,12,16,45,24.10
2010,06,12,16,46,24.00
2010,06,12,16,47,24.00
2010,06,12,16,48,23.90
2010,06,12,16,49,23.90
2010,06,12,16,50,23.90
2010,06,12,16,51,23.80
2010,06,12,16,52,23.80
2010,06,12,16,53,23.80
2010,06,12,16,54,23.80
2010,06,12,16,55,23.90
2010,06,12,16,56,23.90
2010,06,12,16,57,24.00
2010,06,12,16,58,24.10
2010,06,12,16,59,24.10
2010,06,12,17,00,24.20
2010,06,12,17,01,24.20
2010,06,12,17,02,24.20
2010,06,12,17,03,24.20
2010,06,12,17,04,24.20
2010,06,12,17,05,24.20
2010,06,12,17,06,24.20
2010,06,12,17,07,24.30
2010,06,12,17,08,24.30
2010,06,12,17,09,24.30
2010,06,12,17,10,24.20
2010,06,12,17,11,24.10
2010,06,12,17,12,24.10
2010,06,12,17,13,24.00
2010,06,12,17,14,23.90
2010,06,12,17,15,23.90
2010,06,12,17,16,23.90
2010,06,12,17,17,23.80
2010,06,12,17,18,23.80
2010,06,12,17,19,23.80
2010,06,12,17,20,23.80
2010,06,12,17,21,23.80
2010,06,12,17,22,23.80
2010,06,12,17,23,23.90
2010,06,12,17,24,23.90
2010,06,12,17,25,24.00
2010,06,12,17,26,23.90
2010,06,12,17,27,23.90
2010,06,12,17,28,23.80
2010,06,12,17,29,23.70
2010,06,12,17,30,23.70
2010,06,12,17,31,23.60
2010,06,12,17,32,23.60
2010,06,12,17,33,23.50
2010,06,12,17,34,23.50
2010,06,12,17,35,23.60